Weather History for KLCI - February, 2012

Change the Weather History Date:

Friday, February 3, 2012

  Actual Average Record
Temperature  
Mean Temperature 25 °F -  
Max Temperature 33 °F 32 °F 46 °F (1999)
Min Temperature 17 °F 10 °F -6 °F (1994)
Degree Days  
Heating Degree Days 40    
Moisture  
Dew Point 12 °F    
Average Humidity 56    
Maximum Humidity 68    
Minimum Humidity 37    
Precipitation  
Precipitation 0.00 in - - ()
Sea Level Pressure  
Sea Level Pressure 30.27 in    
Wind  
Wind Speed 7 mph (West)    
Max Wind Speed 14 mph    
Max Gust Speed 18 mph    
Visibility 10 miles    
Events      
Averages and records for this station are not official NWS values.
T = Trace of Precipitation, MM = Missing Value Source: NWS Daily Summary

Daily Weather History Graph

Daily Weather History Graph

Search for Another Location

Airport or City:

Trip Planner

Search our weather history database for the weather conditions in past years. The results will help you decide how hot, cold, wet, or windy it might be!

Date:

Astronomy

Feb. 03, 2012 Rise Set
Actual Time 7:00 AM EST 4:59 PM EST
Civil Twilight 6:30 AM EST 5:29 PM EST
Nautical Twilight 5:55 AM EST 6:03 PM EST
Astronomical Twilight 5:22 AM EST 6:37 PM EST
Moon 12:53 PM EST (2/3) 3:37 AM EST (2/3)
Length of Visible Light 10h 59m
Length of Day
9h 58m
Waxing Gibbous, 81% of the Moon is Illuminated
Feb 3
Waxing Gibbous
Feb 7
Full
Feb 14
Last Quarter
Feb 21
New
Feb 29
First Quarter

Hourly Weather History & Observations

Time (EST) Temp. Windchill Dew Point Humidity Pressure Visibility Wind Dir Wind Speed Gust Speed Precip Events Conditions
12:15 AM 24.8 °F 15.3 °F 12.2 °F 59% 30.19 in 10.0 mi WNW 9.2 mph 17.3 mph N/A   Overcast
12:35 AM 24.8 °F 16.1 °F 14.0 °F 64% 30.20 in 10.0 mi WNW 8.1 mph - N/A   Overcast
12:55 AM 24.8 °F 16.1 °F 14.0 °F 64% 30.20 in 10.0 mi West 8.1 mph - N/A   Overcast
1:15 AM 24.8 °F 16.1 °F 14.0 °F 64% 30.21 in 10.0 mi West 8.1 mph - N/A   Overcast
1:35 AM 23.0 °F 15.8 °F 14.0 °F 68% 30.22 in 10.0 mi West 5.8 mph - N/A   Overcast
2:15 AM 23.0 °F 15.8 °F 12.2 °F 63% 30.22 in 10.0 mi West 5.8 mph - N/A   Mostly Cloudy
2:35 AM 21.2 °F - 12.2 °F 68% 30.22 in 10.0 mi Calm Calm - N/A   Mostly Cloudy
2:55 AM 21.2 °F 13.6 °F 12.2 °F 68% 30.23 in 10.0 mi West 5.8 mph - N/A   Overcast
3:15 AM 21.2 °F 14.9 °F 12.2 °F 68% 30.24 in 10.0 mi WNW 4.6 mph - N/A   Overcast
3:35 AM 21.2 °F 13.6 °F 10.4 °F 63% 30.24 in 10.0 mi WNW 5.8 mph - N/A   Scattered Clouds
3:55 AM 21.2 °F 13.6 °F 10.4 °F 63% 30.24 in 10.0 mi WNW 5.8 mph 16.1 mph N/A   Clear
4:15 AM 19.4 °F 11.5 °F 10.4 °F 68% 30.25 in 10.0 mi West 5.8 mph - N/A   Clear
4:55 AM 19.4 °F 12.8 °F 10.4 °F 68% 30.26 in 10.0 mi WSW 4.6 mph - N/A   Clear
5:15 AM 19.4 °F 11.5 °F 8.6 °F 63% 30.27 in 10.0 mi West 5.8 mph - N/A   Clear
5:35 AM 19.4 °F 11.5 °F 8.6 °F 63% 30.28 in 10.0 mi WSW 5.8 mph - N/A   Clear
5:55 AM 19.4 °F 14.3 °F 10.4 °F 68% 30.28 in 10.0 mi WSW 3.5 mph - N/A   Clear
6:15 AM 19.4 °F 11.5 °F 8.6 °F 63% 30.29 in 10.0 mi WSW 5.8 mph - N/A   Clear
6:35 AM 19.4 °F 11.5 °F 8.6 °F 63% 30.30 in 10.0 mi West 5.8 mph - N/A   Clear
7:15 AM 17.6 °F 8.2 °F 8.6 °F 68% 30.32 in 10.0 mi WSW 6.9 mph - N/A   Clear
7:35 AM 17.6 °F 8.2 °F 8.6 °F 68% 30.32 in 10.0 mi WSW 6.9 mph - N/A   Clear
7:55 AM 19.4 °F 8.6 °F 8.6 °F 63% 30.33 in 10.0 mi WSW 9.2 mph - N/A   Clear
8:15 AM 19.4 °F 9.5 °F 8.6 °F 63% 30.33 in 10.0 mi WSW 8.1 mph - N/A   Clear
8:35 AM 19.4 °F 11.5 °F 8.6 °F 63% 30.34 in 10.0 mi SW 5.8 mph - N/A   Clear
8:55 AM 21.2 °F 11.7 °F 8.6 °F 58% 30.34 in 10.0 mi WSW 8.1 mph - N/A   Clear
9:15 AM 21.2 °F 16.4 °F 8.6 °F 58% 30.34 in 10.0 mi SW 3.5 mph - N/A   Clear
9:35 AM 21.2 °F 11.7 °F 8.6 °F 58% 30.33 in 10.0 mi SSW 8.1 mph - N/A   Clear
9:55 AM 24.8 °F 14.0 °F 8.6 °F 50% 30.33 in 10.0 mi WNW 11.5 mph 17.3 mph N/A   Clear
10:35 AM 26.6 °F 16.8 °F 8.6 °F 47% 30.33 in 10.0 mi West 10.4 mph - N/A   Clear
11:15 AM 28.4 °F 23.3 °F 8.6 °F 43% 30.32 in 10.0 mi West 4.6 mph - N/A   Clear
11:35 AM 28.4 °F 22.2 °F 8.6 °F 43% 30.31 in 10.0 mi NW 5.8 mph - N/A   Partly Cloudy
11:55 AM 28.4 °F 20.4 °F 8.6 °F 43% 30.31 in 10.0 mi West 8.1 mph - N/A   Mostly Cloudy
12:15 PM 28.4 °F 20.4 °F 8.6 °F 43% 30.31 in 10.0 mi West 8.1 mph - N/A   Overcast
12:35 PM 28.4 °F 19.7 °F 8.6 °F 43% 30.30 in 10.0 mi WNW 9.2 mph 17.3 mph N/A   Scattered Clouds
12:55 PM 30.2 °F 19.8 °F 6.8 °F 37% 30.29 in 10.0 mi West 13.8 mph 18.4 mph N/A   Partly Cloudy
1:35 PM 30.2 °F 22.6 °F 8.6 °F 40% 30.28 in 10.0 mi West 8.1 mph - N/A   Clear
1:55 PM 30.2 °F 22.6 °F 8.6 °F 40% 30.28 in 10.0 mi WNW 8.1 mph - N/A   Clear
2:15 PM 30.2 °F 21.9 °F 8.6 °F 40% 30.28 in 10.0 mi WSW 9.2 mph 16.1 mph N/A   Clear
2:35 PM 30.2 °F 20.2 °F 10.4 °F 44% 30.28 in 10.0 mi WSW 12.7 mph - N/A   Partly Cloudy
2:55 PM 32.0 °F 23.0 °F 8.6 °F 38% 30.27 in 10.0 mi WSW 11.5 mph - N/A   Partly Cloudy
3:15 PM 32.0 °F 24.8 °F 10.4 °F 41% 30.28 in 10.0 mi West 8.1 mph - N/A   Scattered Clouds
3:35 PM 33.8 °F 27.0 °F 12.2 °F 41% 30.27 in 10.0 mi West 8.1 mph - N/A   Partly Cloudy
3:55 PM 33.8 °F 25.8 °F 12.2 °F 41% 30.27 in 10.0 mi NW 10.4 mph - N/A   Clear
4:35 PM 30.2 °F 23.4 °F 10.4 °F 44% 30.27 in 10.0 mi West 6.9 mph - N/A   Clear
4:55 PM 30.2 °F 21.9 °F 10.4 °F 44% 30.27 in 10.0 mi West 9.2 mph - N/A   Clear
5:15 PM 30.2 °F 26.7 °F 12.2 °F 47% 30.27 in 10.0 mi West 3.5 mph - N/A   Clear
5:35 PM 28.4 °F 21.2 °F 12.2 °F 51% 30.27 in 10.0 mi SW 6.9 mph - N/A   Mostly Cloudy
5:55 PM 28.4 °F 22.2 °F 15.8 °F 59% 30.28 in 10.0 mi WSW 5.8 mph - N/A   Overcast
6:15 PM 30.2 °F 24.3 °F 15.8 °F 55% 30.27 in 10.0 mi West 5.8 mph - N/A   Overcast
6:35 PM 28.4 °F 21.2 °F 15.8 °F 59% 30.27 in 10.0 mi WSW 6.9 mph - N/A   Overcast
7:15 PM 30.2 °F 25.4 °F 15.8 °F 55% 30.26 in 10.0 mi WSW 4.6 mph - N/A   Overcast
7:35 PM 30.2 °F - 15.8 °F 55% 30.26 in 10.0 mi Calm Calm - N/A   Overcast
7:55 PM 28.4 °F - 15.8 °F 59% 30.24 in 10.0 mi Calm Calm - N/A   Overcast
8:15 PM 28.4 °F 24.6 °F 15.8 °F 59% 30.24 in 10.0 mi WSW 3.5 mph - N/A   Overcast
8:35 PM 28.4 °F - 17.6 °F 64% 30.24 in 10.0 mi Calm Calm - N/A   Overcast
8:55 PM 28.4 °F 24.6 °F 15.8 °F 59% 30.24 in 10.0 mi WSW 3.5 mph - N/A   Overcast
9:35 PM 28.4 °F 23.3 °F 15.8 °F 59% 30.23 in 10.0 mi SW 4.6 mph - N/A   Overcast
9:55 PM 28.4 °F 23.3 °F 15.8 °F 59% 30.22 in 10.0 mi SW 4.6 mph - N/A   Overcast
10:15 PM 30.2 °F 26.7 °F 15.8 °F 55% 30.22 in 10.0 mi WSW 3.5 mph - N/A   Overcast
10:35 PM 30.2 °F - 17.6 °F 60% 30.21 in 10.0 mi Calm Calm - N/A   Overcast
10:55 PM 30.2 °F - 15.8 °F 55% 30.21 in 10.0 mi Calm Calm - N/A   Overcast
11:15 PM 30.2 °F - 17.6 °F 60% 30.21 in 10.0 mi Calm Calm - N/A   Overcast
11:35 PM 28.4 °F - 17.6 °F 64% 30.21 in 10.0 mi Calm Calm - N/A   Overcast